Regional Weather Roundup
Issued by NWS Upton, NY

Current Version | Previous Version | Text Only | Print | Product List | Glossary Off
Versions: 1 2 3 4 5 6 7 8 9 10 11 12 13 14 15 16 17 18 19 20 21 22 23 24 25 26 27 28 29 30 31 32 33 34 35 36 37 38 39 40 41 42 43 44 45 46 47 48 49 50
000 ASUS41 KOKX 030504 RWROKX REGIONAL WEATHER ROUNDUP NATIONAL WEATHER SERVICE NEW YORK NY 100 AM EDT THU SEP 03 2015 NOTE: "FAIR" INDICATES FEW OR NO CLOUDS BELOW 12,000 FEET WITH NO SIGNIFICANT WEATHER AND/OR OBSTRUCTIONS TO VISIBILITY. NYZ071-072-176-178-NJZ106-104-030600- NEW YORK CITY METRO AREA CITY SKY/WX TMP DP RH WIND PRES REMARKS CENTRAL PARK CLEAR 78 70 76 CALM 29.90F LAGUARDIA APRT CLEAR 79 70 74 SW5 29.87F KENNEDY INTL PTCLDY 75 72 90 S7 29.89F NEWARK/LIBERTY CLEAR 77 71 82 SW5 29.88F BRNX BOT. GARD N/A 77 70 78 W6 29.87F TETERBORO CLEAR 75 68 78 CALM 29.87F $$ NYZ177-179-078>081-030600- LONG ISLAND NEW YORK CITY SKY/WX TMP DP RH WIND PRES REMARKS FARMINGDALE CLOUDY 76 72 87 SW7 29.88F ISLIP CLEAR 73 67 81 SW3 29.87F SHIRLEY CLEAR 74 67 78 SW5 29.89F WESTHAMPTON CLEAR 69 67 93 CALM 29.90F MONTAUK POINT N/A 73 69 87 CALM 29.89F $$ NYZ052-065-067-030600- HUDSON VALLEY CITY SKY/WX TMP DP RH WIND PRES REMARKS WHITE PLAINS CLEAR 70 66 87 NW3 29.89F NEWBURGH CLEAR 70 66 88 CALM 29.92 MONTGOMERY CLEAR 65 63 93 S3 29.90F POUGHKEEPSIE CLEAR 68 65 90 SE3 29.88F ALBANY PTCLDY 72 65 78 CALM 29.90S $$ NJZ001-105-106-008-010-013-015-019>022-104-030600- NEW JERSEY CITY SKY/WX TMP DP RH WIND PRES REMARKS NEWARK/LIBERTY CLEAR 77 71 82 SW5 29.88F TETERBORO CLEAR 75 68 78 CALM 29.87F CALDWELL CLEAR 71 66 84 CALM 29.89F MORRISTOWN CLEAR 64 59 82 CALM 29.90F HAZE SOMERVILLE CLEAR 68 65 90 CALM 29.88F FOG SUSSEX CLEAR 65 63 93 CALM 29.92F FOG ANDOVER N/A 66 65 96 CALM 29.93S TRENTON CLEAR 72 68 87 NW3 29.89F MILLVILLE CLEAR 69 67 93 CALM 29.90F FOG ATLANTIC CITY CLEAR 72 69 90 CALM 29.90F WRIGHTSTOWN CLEAR 72 72 100 SW2 29.87F TOMS RIVER CLEAR 72 70 94 CALM 29.90F BELMAR CLEAR 73 66 78 SW6 29.89F $$ PAZ047>061-062-071-030600- EASTERN PENNSYLVANIA CITY SKY/WX TMP DP RH WIND PRES REMARKS PHILADELPHIA CLEAR 77 70 79 W7 29.91F ALLENTOWN CLEAR 71 65 81 SW3 29.92F SCRANTON CLEAR 69 62 78 E6 29.95F $$ CTZ002-004>006-009-010-012-RIZ004-006-007-MAZ004-011-015-030600- SOUTHERN NEW ENGLAND IN CT CITY SKY/WX TMP DP RH WIND PRES REMARKS BRADLEY INTL PTCLDY 73 66 78 SW3 29.87F HARTFORD CLEAR 71 65 81 S3 29.87F DANBURY CLEAR 66 62 87 SW3 29.91F WTRBRY/OXFORD CLEAR 70 61 73 CALM 29.92F BRIDGEPORT CLEAR 75 68 78 CALM 29.88F MERIDEN CLEAR 67 63 87 CALM 29.89S NEW HAVEN CLEAR 72 67 84 CALM 29.88F CHESTER NOT AVBL GROTON CLEAR 71 69 93 W3 29.88S WILLIMANTIC CLEAR 67 63 87 CALM 29.88F IN RI CITY SKY/WX TMP DP RH WIND PRES REMARKS PROVIDENCE CLEAR 72 64 76 W7 29.87F BLOCK ISLAND CLEAR 72 70 94 W10 29.89S WESTERLY CLEAR 71 66 84 CALM 29.89F IN MA CITY SKY/WX TMP DP RH WIND PRES REMARKS BOSTON CLEAR 74 65 73 SW7 29.85F WORCESTER CLEAR 70 63 78 W8 29.91S WESTFIELD CLEAR 67 65 93 CALM 29.88F FOG PROVINCETOWN N/A 70 61 73 SW8 29.86S NANTUCKET N/A N/A N/A N/A MISG 29.89S $$ ANZ330-335-338-340-345-350-353-355-030600- COASTAL MARINE OBSERVATIONS STATION/POSITION TIME SKY/WX TEMP WIND PRES VSBY WAVE AIR SEA DIR/SP/G HT/PER (UTC) (F) (DEG/KT/KT) (MB) (MI) (FT/S) NY HARB ENTRANCE 0350 77 77 200/ 10/ 12 1011.8 2/14 4S FIRE IS NOT AVBL 20S FIRE ISLAND 0350 76 75 180/ 6/ 8 1012.1 2/ 8 GREAT SOUTH BAY 0400 77 79 230/ 8/ 10 N/A 23SW MTP 0450 74 73 230/ 6/ 8 1011.6 2/ 7 HUDSON CANYON NOT AVBL KINGS POINT 0400 76 75 190/ 6/ 8 1011.4 EXECUTION ROCKS 0400 76 200/ 8/ 10 N/A CENTRAL LI SOUND NOT AVBL EASTERN LI SOUND 0400 72 71 220/ 4/ 6 N/A ROBBINS REEF 0400 76 170/ 6/ 7 1011.1 $$ >>>>>>>>>>>>>>>>>>>>>>>>>>>> KEY <<<<<<<<<<<<<<<<<<<<<<<<<<< > < > SKY/WX - SKY CONDITION/PRESENT WEATHER < > TMP - TEMPERATURE IN FAHRENHEIT < > DP - DEWPOINT IN FAHRENHEIT < > RH - RELATIVE HUMIDITY IN PERCENT < > WIND - DIRECTION AND SPEED IN MPH < > PRES - MEAN SEA LEVEL PRESSURE IN INCHES OF HG < > WCI - WIND CHILL INDEX < > VSB - VISIBILITY IN MILES < > HX - HEAT INDEX < > TC - TEMPERATURE IN CELSIUS < > VRB - VARIABLE WIND DIRECTION < > < >>>>>>>>>>>>>>>>>>>>>>>>>>>> KEY <<<<<<<<<<<<<<<<<<<<<<<<<<<

USA.gov is the U.S. government's official web portal to all federal, state and local government web resources and services.